User: anonymous
Location: Standeford and Andreas Observatories
(44.1397°N, 93.9969°W)
Time: 00:43:28
(UTC-05:00)
Language:

Cosmos 1500 Rocket - Orbit

View from above orbital plane
View from above orbital plane
View from above satellite
View from above satellite

Ground track
Ground track

The orbit data is extracted from the following two-line orbital elements,

1 14373U 83099B   14109.87623478  .00000999  00000-0  11947-3 0  6323
2 14373 082.5416 242.8822 0021783 077.0163 038.1222 14.83045553649745
Epoch (UTC): 19 April 2014 21:01:46
Eccentricity: 0.0021783
inclination: 82.5416°
perigee height: 604 km
apogee height: 635 km
right ascension of ascending node: 242.8822°
argument of perigee: 77.0163°
revolutions per day: 14.83045553
mean anomaly at epoch: 38.1222°
orbit number at epoch: 64974

The dashed part of the orbit path shows where the satellite is in the earth's shadow,  

DLR